Flag Weather past 2 weeks in Kvernaland, Norway

Now
48 °F

Low clouds.


Feels Like: 44 °F
Forecast: 41 / 47 °F
Wind: 9 mph from West

Location: Stavanger / Sola

Current Time: Nov 23, 2014 at 11:46:55 PM

Latest Report: Nov 23, 2014 at 11:00 PM


Visibility: 11 mi

Pressure: 29.71 "Hg

Humidity: 91%

Dew point: 46 °F

Location of KvernalandLocation

Historic Weather in Kvernaland — Graph

°F

Kvernaland temperature yesterday

Maximum temperature yesterday: 45 °F (at 3:00 PM)
Minimum temperature yesterday: 32 °F (at 5:00 AM)
Average temperature yesterday: 41 °F

Past Weeks' High & Low Weather Summary

 TemperatureHumidityPressure
High55 °F (Nov 9, 9:00 AM)97% (Nov 11, 5:00 AM)30.47 "Hg (Nov 11, 5:00 AM)
Low32 °F (Nov 22, 5:00 AM)48% (Nov 12, 3:00 PM)29.57 "Hg (Nov 10, 5:00 AM)
Average47 °F71%29.99 "Hg
* Reported Nov 8 10:00 PM — Nov 23 10:00 PM, Kvernaland, Weather by CustomWeather, © 2014

Note: Actual official high and low records may vary slightly from our data, if they occured in-between our weather recording intervals... More about our weather records

Advertising

Kvernaland weather history for previous 24 hours

 ConditionsComfort  
Time TempWeatherWind HumidityBarometerVisibility
10:00 PM
Nov 23
47 °FPassing clouds.8 mph88%29.69 "Hg13 mi
9:00 PM49 °FOvercast.7 mph88%29.70 "Hg31 mi
8:00 PM48 °FLight rain. Overcast.7 mph89%29.71 "Hg22 mi
7:00 PM46 °FRain. Fog.1 mph96%29.74 "Hg4 mi
6:00 PM45 °FRain. Passing clouds.1 mph96%29.77 "Hg4 mi
5:00 PM46 °FRain. Light fog.3 mph96%29.81 "Hg5 mi
4:00 PM45 °FLight rain. Clear.3 mph96%29.86 "Hg6 mi
3:00 PM45 °FLight rain. Partly sunny.1 mph95%29.90 "Hg5 mi
2:00 PM45 °FFreezing rain. Fog.1 mph96%29.93 "Hg2 mi
1:00 PM46 °FRain. Fog.2 mph90%29.95 "Hg3 mi
12:00 PM47 °FLight rain. Scattered clouds.3 mph85%29.97 "Hg7 mi
11:00 AM48 °FLight rain. Partly sunny.7 mph77%29.98 "Hg14 mi
10:00 AM49 °FOvercast.8 mph70%29.99 "Hg31 mi
9:00 AM48 °FOvercast.6 mph71%30.01 "Hg31 mi
8:00 AM47 °FOvercast.7 mph74%30.01 "Hg31 mi
7:00 AM46 °FOvercast.6 mph78%30.01 "Hg31 mi
6:00 AM45 °FRain showers. Overcast.5 mph82%30.03 "Hg8 mi
5:00 AM45 °FRain showers. Overcast.6 mph82%30.02 "Hg13 mi
4:00 AM45 °FRain showers. Overcast.5 mph80%30.03 "Hg31 mi
3:00 AM45 °FLight rain. Overcast.6 mph81%30.04 "Hg9 mi
2:00 AM45 °FRain. Overcast.3 mph80%30.06 "Hg7 mi
1:00 AM46 °FOvercast.9 mph72%30.05 "Hg31 mi
12:00 AM45 °FRain showers. Overcast.7 mph76%30.06 "Hg28 mi
11:00 PM
Nov 22
45 °FRain showers. Overcast.9 mph75%30.06 "Hg25 mi
Weather by CustomWeather, © 2014

See weather overviewHow to use our weather pages